Location: Chrustenice
(50.0051°N, 14.1487°E)
Time: 16:14:00
(UTC+00:00)

Daily predictions for brighter satellites

Satellite Brightness Start Highest point End
(mag) Time Altitude Azimuth Time Altitude Azimuth Time Altitude Azimuth
Cosmos 1867 3.8 16:42:03 10° SW 16:47:29 80° NW 16:52:59 10° NE
COSMOS 2428 2.9 16:44:27 10° NNW 16:50:13 86° WSW 16:55:57 10° SSE
SJ-6B 4.4 16:49:29 10° E 16:51:01 13° ENE 16:52:32 10° NE
Cosmos 2237 Rocket 2.4 16:46:43 10° NNW 16:52:15 49° NE 16:57:45 10° SE
Cosmos 2123 Rocket 4.1 16:46:42 10° S 16:53:02 88° W 16:59:22 10° N
MOS 1 Rocket 4.3 16:49:03 10° S 16:53:22 48° W 16:57:34 10° NNW
Cosmos 1025 Rocket 3.3 16:49:35 10° SSE 16:53:41 45° E 16:57:50 10° NNE
Cosmos 1814 Rocket 4.0 16:48:51 10° SSW 16:54:09 87° ESE 16:59:25 10° NNE
Sich 1 Rocket 3.9 16:50:30 10° N 16:54:56 49° ENE 16:59:21 10° SSE
GP-B 3.1 16:55:05 10° S 16:59:27 90° NW 17:03:51 10° N
Cosmos 1125 Rocket 3.5 16:55:13 10° NNW 17:00:25 70° ENE 17:05:36 10° SSE
SKYMED 2 3.8 16:56:13 10° NNE 17:00:28 50° E 17:04:42 10° S
NOSS 3-3 (C) 3.9 16:55:38 10° SSW 17:00:44 58° SE 17:06:49 10° NE
Cosmos 158 Rocket 3.9 16:57:44 10° SSW 17:02:35 85° WNW 17:07:30 10° NNE
SeaSat 1 2.6 16:58:47 10° SSE 17:03:41 83° WSW 17:08:37 10° NNW
Resurs 1-3 3.6 17:00:37 10° SSE 17:04:50 61° ENE 17:09:06 10° N
CZ-2D R/B 3.7 17:03:20 10° S 17:06:20 51° W 17:09:20 10° NNW
Resurs 01 Rocket 2.3 17:03:12 10° SE 17:07:05 31° ENE 17:11:00 10° N
SAR-Lupe-1 4.0 17:05:53 10° SSE 17:09:27 83° ENE 17:13:02 10° NNW
SPOT 5 4.4 17:07:09 10° E 17:10:17 17° NE 17:13:30 10° NNE
USA 234 4.0 17:08:15 10° SE 17:14:40 56° SW 17:21:06 10° WNW
SL-16 R/B 3.1 17:12:54 10° NNW 17:17:47 28° NE 17:22:04 12° E
Cosmos 2227 Rocket 3.3 17:14:21 10° SSE 17:18:41 23° ESE 17:23:03 10° NE
Cosmos 1315 Rocket 4.0 17:15:21 10° NNW 17:18:59 44° W 17:22:36 10° SSW
Spot 4 Rocket 4.0 17:14:42 10° SSE 17:19:45 67° ENE 17:24:50 10° N
NOAA 6 4.1 17:14:58 10° SE 17:19:59 56° ENE 17:25:03 10° N
Cosmos 1674 Rocket 3.7 17:15:45 10° SSW 17:20:08 79° W 17:24:35 10° N
Tiangong 0.4 17:20:17 10° S 17:21:35 12° SSE 17:22:53 10° SE
Cosmos 1447 Rocket 4.4 17:17:31 10° S 17:23:33 64° E 17:29:38 10° NNE
ARIANE 5 R/B 3.9 17:20:06 10° S 17:24:57 43° W 17:29:48 10° NNW
SAR-Lupe-4 4.1 17:22:06 10° S 17:25:37 61° WSW 17:29:11 10° NNW
NOSS 3-3 (A) 3.8 17:22:27 10° SW 17:27:41 87° NW 17:34:04 10° NE
CARTOSAT-1 3.5 17:24:19 10° SSE 17:28:27 61° ENE 17:32:37 10° N
Cosmos 1346 Rocket 4.5 17:27:30 10° SE 17:28:21 13° ESE 17:28:21 13° ESE
Cosmos 2285 Rocket 4.2 17:30:47 10° NNW 17:37:13 79° WSW 17:43:36 10° SSE
SL-19 R/B 4.4 17:34:31 10° SSE 17:40:41 80° ENE 17:46:34 10° NNW
CZ-4 R/B 3.0 17:42:57 16° NE 17:42:57 16° NE 17:44:29 10° NNE
ARIANE 6 FM1 Upper Stage 3.5 17:40:07 10° NNW 17:43:42 31° NNE 17:45:03 25° ENE
CRYOSAT 2 4.4 17:40:10 10° NNE 17:45:00 58° E 17:49:48 10° S
CZ-4B R/B 4.4 17:44:18 19° ENE 17:45:01 20° NE 17:48:44 10° N
NOSS 3-4 (A) 3.8 17:39:36 10° NW 17:46:15 86° NE 17:54:09 10° SE
NOSS 3-4 (C) 3.8 17:39:52 10° NW 17:46:33 86° NE 17:54:26 10° SE
Cosmos 1513 Rocket 4.4 17:40:44 10° N 17:47:02 77° E 17:53:24 10° SSE
Cosmos 2150 Rocket 3.9 17:42:55 10° NNW 17:48:04 64° ENE 17:53:09 10° SE
Cosmos 2034 Rocket 4.3 17:43:35 10° N 17:49:23 40° ENE 17:55:10 10° SE
Orbus 7S? 4.3 17:40:19 10° WNW 17:49:46 85° NNE 17:52:36 22° ESE
Cosmos 1072 Rocket 4.4 17:44:27 10° N 17:50:40 63° ENE 17:56:46 10° SSE
Cosmos 2298 Rocket 4.0 17:45:58 10° NNW 17:51:15 65° ENE 17:56:30 10° SE
Terra 3.6 17:52:13 15° NE 17:52:13 15° NE 17:54:00 10° NNE
Cosmos 1544 Rocket 4.3 17:48:20 10° N 17:52:12 30° ENE 17:52:59 28° E
Radarsat Rocket 4.3 17:48:50 10° S 17:54:40 71° WSW 18:01:03 10° NNW
Helios 1A Rocket 4.2 17:58:04 17° SSE 17:58:04 17° SSE 17:59:05 10° SSE
CSL-04 Rocket 4.0 17:53:36 18° SE 17:57:05 39° ENE 18:01:59 10° N
Cosmos 1455 Rocket 3.1 17:53:08 10° NNW 17:57:27 76° W 18:01:44 10° S
YAOGAN 1 3.9 17:55:16 10° S 17:59:18 41° W 18:03:22 10° NNW
PSLV R/B 3.9 17:55:56 10° S 18:00:00 62° WSW 18:04:05 10° NNW
Cosmos 1975 Rocket 3.0 17:55:47 10° S 18:00:01 54° E 18:04:15 10° NNE
COSMO-SKYMED 1 2.7 17:55:58 10° N 18:00:05 69° WNW 18:04:09 10° SSW
Cosmos 44 Rocket 3.4 17:55:23 10° SSW 18:00:12 59° ESE 18:03:11 24° NE
Cosmos 2228 2.8 17:56:14 10° N 18:00:25 67° ENE 18:04:36 10° SSE
RESURS DK-1 4.3 17:58:36 10° N 18:00:24 15° NNE 18:00:24 15° NNE
Cosmos 1782 2.6 17:58:44 10° N 18:02:15 50° ENE 18:03:12 38° SE
Cosmos 2297 Rocket 2.2 17:57:12 10° SSW 18:02:52 82° WNW 18:08:35 10° NNE
ATLAS 2AS CENTAUR R/B 4.1 17:57:30 10° WNW 18:03:11 27° N 18:07:56 13° NE
Lacrosse 5 rocket 2.4 18:02:08 10° WNW 18:05:15 28° N 18:06:24 23° NNE
Cosmos 1943 4.2 18:00:56 10° NNW 18:05:44 27° NE 18:06:44 26° ENE
DNEPR-1 R/B 3.9 18:01:10 10° NW 18:06:00 85° NE 18:10:09 19° SE
IRAS Rocket 4.2 18:01:53 10° SSE 18:07:30 86° ENE 18:13:10 10° NNW
Aureole 3 Rocket 4.2 18:04:04 10° NNW 18:07:44 37° W 18:10:44 10° SSW
CZ-4C R/B 3.0 18:10:30 10° WSW 18:14:50 41° NNW 18:19:25 14° NE
Cosmos 1464 Rocket 4.0 18:10:54 10° N 18:17:19 88° E 18:23:37 10° S
USA 267 3.6 18:15:08 22° NE 18:19:26 58° NNW 18:25:49 10° W
Meteor 2-17 Rocket 4.4 18:14:02 10° S 18:20:06 89° W 18:26:12 10° N
Cosmos 2344 3.7 18:13:07 10° S 18:20:34 46° ESE 18:23:43 30° ENE
ERS-1 Rocket 3.9 18:22:18 29° NE 18:22:18 29° NE 18:25:48 10° N
SJ-6B 2.9 18:20:31 10° S 18:23:56 61° W 18:27:21 10° NNW
Feng Yun 1-1 Rocket 4.5 18:26:58 39° ESE 18:28:39 51° ENE 18:34:22 10° N
CZ-4B R/B 3.6 18:28:24 72° ESE 18:28:40 76° ENE 18:32:34 10° N
Cosmos 2263 Rocket 2.3 18:25:46 10° S 18:31:11 49° ESE 18:31:44 47° E
Meteor 1-31 Rocket 3.6 18:36:36 36° NNW 18:36:36 36° NNW 18:38:46 10° NNW
Cosmos 2237 Rocket 3.8 18:31:05 10° NW 18:36:07 33° WSW 18:41:09 10° SSW
PAYLOAD B 4.3 18:36:07 50° ESE 18:37:00 55° ENE 18:42:29 10° N
ADEOS 3.9 18:43:00 47° NE 18:43:00 47° NE 18:47:26 10° N
Resurs 01 Rocket 3.3 18:39:26 10° SSW 18:43:25 33° W 18:47:25 10° NNW
SPOT 5 2.8 18:45:52 44° SSE 18:47:28 88° WSW 18:52:37 10° NNW
Tiangong 1.0 18:55:33 10° SW 18:55:41 11° SW 18:55:41 11° SW
Cosmos 2227 Rocket 2.4 18:56:35 10° SW 19:02:12 68° WNW 19:05:16 28° NNE
SL-16 R/B 2.4 18:56:44 10° NNW 19:02:21 67° WSW 19:03:59 45° S
Cosmos 783 Rocket 4.4 18:57:18 10° SSW 19:02:35 85° WNW 19:03:04 74° N
Tsikada Rocket 3.8 19:02:07 10° S 19:08:15 82° E 19:14:28 10° N
CZ-4 R/B 3.5 19:17:56 20° NNW 19:17:56 20° NNW 19:19:19 10° NNW
Okean O Rocket 4.1 19:20:31 13° N 19:20:31 13° N 19:21:00 10° N
CZ-4B R/B 3.6 19:26:08 56° NNW 19:26:08 56° NNW 19:30:20 10° NNW
Gbstr 26 Del rocket 4.4 19:20:02 10° SW 19:26:28 64° S 19:26:28 64° S
Terra 3.5 19:30:49 26° NNW 19:30:49 26° NNW 19:32:52 10° NNW
Cosmos 1634 Rocket 4.4 19:36:13 10° NNW 19:42:26 60° W 19:43:03 58° WSW
Lacrosse 5 rocket 4.3 19:39:33 10° NW 19:39:50 12° NW 19:39:50 12° NW
Cosmos 2297 Rocket 4.4 19:43:32 10° W 19:47:48 21° NW 19:51:39 12° N
Cosmos 1943 4.1 19:44:37 10° NNW 19:48:32 45° NW 19:48:32 45° NW
ATLAS 2AS CENTAUR R/B 3.9 19:50:09 10° NW 19:55:21 30° N 19:55:21 30° N
BREEZE-M DEB (TANK) 4.2 19:44:44 10° W 19:56:30 55° SW 19:56:30 55° SW
USA 267 3.9 20:02:28 48° NNW 20:02:28 48° NNW 20:08:10 10° WNW
CZ-4C R/B 4.1 20:00:24 10° WNW 20:04:23 23° N 20:04:23 23° N
Cosmos 2263 Rocket 3.8 20:10:02 10° WSW 20:13:31 30° W 20:13:31 30° W
Cosmos 2344 4.2 20:27:36 10° WSW 20:33:47 48° WNW 20:33:47 48° WNW
